Hourly Data Report for September 06, 2003

SHERBROOKE A
QUEBEC

45°26'00.000" N
71°41'00.000" W
241.40 m
7028124
71610
YSC

Download Data

Hourly Data (September 2003)
Hourly Data Report for September 6, 2003
TIME
LST
Temp Definition
°C
Dew Point Definition
°C
Rel Hum Definition
%
Precip. Amount Definition
mm

Wind Dir Definition
10's deg

Wind Spd Definition
km/h
Visibility Definition
km
Stn Press Definition
kPa
Hmdx Definition


Wind Chill Definition


Weather Definition


00:00 13.4 12.1 92   22 7 15.0 98.93      
01:00 11.1 10.4 95     0 12.9 98.95      
02:00 11.4 10.6 95   21 7 15.0 98.94      
03:00 9.4 8.5 94     0 15.0 98.93      
04:00 8.6 7.6 93     0 15.0 98.95      
05:00 10.0 9.3 95   22 7 15.0 99.00      
06:00 9.0 8.4 96   21 6 15.0 99.04      
07:00 12.6 11.3 92   21 9 24.1 99.07     Clear
08:00 14.8 12.1 84   25 9 24.1 99.06     Mainly Clear
09:00 17.0 12.5 75   29 11 24.1 99.05     Mainly Clear
10:00 17.1 10.7 66   27 17 24.1 99.03     Mainly Clear
11:00 18.2 10.4 60   24 13 24.1 98.98     Mainly Clear
12:00 19.3 10.9 58   26 15 24.1 98.92     Mainly Clear
13:00 20.8 10.7 52   24 15 24.1 98.86     Mainly Clear
14:00 20.7 10.9 53   26 11 24.1 98.80     Mainly Clear
15:00 21.1 11.1 53   25 15 24.1 98.74     Mainly Clear
16:00 20.4 10.8 54   23 11 24.1 98.73     Mainly Clear
17:00 19.1 10.9 59   23 9 15.0 98.71      
18:00 17.5 11.2 67   23 6 15.0 98.69      
19:00 14.0 10.7 80   20 7 15.0 98.72      
20:00 9.9 8.1 89   21 4 15.0 98.73      
21:00 9.1 7.9 92   21 4 15.0 98.73      
22:00 8.5 7.7 95   30 4 15.0 98.74      
23:00 7.8 7.3 97     0 15.0 98.73      

Notes on Data Quality.

Legend

  • E = Estimated
  • M = Missing
  • NA = Not Available*
  • [empty] = Indicates an unobserved value
Date modified: